Temp
67 63 62 69 71 68 66 63 62 68 72 62 61 62 66 71 72 71 72 74 76 76 79 71 69 68 66 64 62 61 58 59 58 55 53 53 52 52 53 53 51 51 51 50
60 58 69 72 64 65 65 59 60 67 69 57 59 58 65 68 68 70 70 71 74 76 74 68 67 65 62 61 59 60 58 58 57 57 55 57 56 54 54 53 51 51 49 48
59 68 64 62 63 58 60 58 61 61 65 60 56 54 61 67 68 68 68 70 72 72 71 67 64 62 61 59 58 58 58 58 57 56 54 51 50 50 49 49 49 49 48 46
63 68 64 59 58 63 54 65 62 58 54 50 57 46 59 64 67 66 65 71 75 68 67 66 63 60 58 58 58 58 57 57 56 53 49 48 49 50 53 53 50 48 48 46
62 59 54 55 59 63 58 56 56 55 52 52 53 48 56 58 59 61 66 70 75 68 65 64 61 58 59 57 55 56 56 56 53 51 49 48 48 51 52 49 46 45 46 46
58 57 58 60 53 56 55 54 52 51 51 42 54 53 54 60 62 66 69 72 75 67 64 64 63 60 58 56 54 53 53 52 52 50 48 48 47 47 45 45 44 45 46 45
58 56 58 56 53 53 53 52 46 44 40 40 60 51 58 65 67 68 70 72 72 65 64 63 61 57 56 54 52 51 52 50 50 48 48 47 47 47 45 45 44 43 43 43
54 50 53 55 57 60 50 55 46 36 40 46 44 44 57 69 72 70 71 70 68 65 64 62 61 58 55 53 51 51 49 50 49 47 47 47 47 46 45 44 43 42 41 41
53 52 51 55 55 59 52 44 57 45 39 38 50 58 66 66 65 65 63 63 64 63 62 61 61 59 56 53 50 49 50 49 48 47 46 46 45 44 42 42 41 40 40 39
60 49 56 46 50 52 52 55 45 46 34 35 47 50 53 59 60 62 60 60 65 65 64 62 60 58 56 55 51 50 50 48 47 45 45 44 42 42 41 40 38 37 38 36
58 52 50 47 45 52 45 46 47 48 48 39 38 47 63 61 63 65 65 65 67 66 64 63 60 59 57 54 51 50 49 47 46 44 43 41 40 39 38 37 36 36 35 33
54 48 43 51 61 57 56 53 53 42 41 46 45 46 63 63 62 63 64 65 69 67 68 68 63 59 55 53 52 50 48 46 45 43 41 39 38 36 35 34 34 33 31 30
51 42 37 43 47 45 46 51 52 53 48 41 37 44 65 66 67 69 63 65 63 61 65 65 64 58 56 53 51 50 47 46 44 41 38 37 35 34 33 33 32 30 28 27
51 45 43 41 47 54 47 47 48 48 41 41 43 48 57 60 62 65 67 67 66 64 65 66 62 58 56 53 52 50 46 45 42 39 36 34 33 32 32 31 29 27 26 24
46 36 42 46 51 53 51 50 48 44 46 42 46 49 55 60 61 64 67 67 65 65 65 63 59 60 55 51 50 47 45 42 39 35 34 32 32 32 29 26 24 23 22 21
45 33 36 32 40 41 40 45 47 47 48 48 48 47 58 61 63 61 62 63 61 61 62 60 58 54 49 47 46 43 43 39 36 33 31 31 28 25 24 23 21 20 19 19
35 33 32 28 38 35 30 37 43 46 50 49 42 51 59 58 59 59 60 61 59 60 58 54 54 51 48 47 43 41 40 36 31 30 28 26 23 20 20 19 17 16 16 17
36 33 33 30 34 23 38 49 47 44 46 50 51 54 56 57 60 58 60 58 57 57 55 53 50 52 47 46 42 40 36 30 28 26 23 21 20 18 18 16 15 15 16 15
42 37 32 28 28 36 39 46 44 42 42 50 49 52 54 56 54 53 60 60 58 58 58 57 55 52 47 43 40 34 30 27 26 23 21 19 18 16 15 13 14 15 15 15
40 39 33 31 26 25 41 48 54 52 35 53 53 52 52 52 41 49 59 54 52 54 53 49 45 43 40 37 34 29 25 24 23 21 19 17 16 14 13 13 13 13 13 12
32 31 29 29 28 33 48 51 51 33 40 54 54 53 53 48 51 57 51 51 51 46 41 40 40 37 36 33 29 25 24 23 23 21 17 15 13 12 12 11 12 10 10 12
39 32 29 30 27 25 51 49 41 51 57 57 57 55 52 54 55 54 56 54 45 42 36 36 32 31 30 28 27 25 23 24 21 16 13 11 9 10 8 7 7 8 9 9
32 41 33 39 39 52 56 54 57 57 56 56 55 57 59 56 54 52 52 50 43 42 33 31 30 27 25 26 27 24 24 19 15 13 10 8 7 9 7 5 8 9 9 12
36 41 32 31 38 40 43 48 48 48 42 43 45 45 48 48 48 45 41 42 37 34 32 28 26 23 22 24 25 24 17 16 13 10 8 7 6 7 6 9 10 11 11 12
31 34 32 31 37 43 44 46 46 43 41 41 42 42 44 44 42 43 42 41 39 35 31 27 25 24 22 23 24 16 15 14 11 10 8 7 8 7 8 11 10 12 13 13
35 32 28 27 40 39 40 41 43 41 41 43 42 43 44 43 41 42 41 42 42 38 30 26 25 23 21 22 16 15 14 14 12 10 9 9 8 9 9 9 7 12 13 14
MSLP
1012.28 1011.58 1009.61 1008.78 1008.35 1008.05 1007.72 1007.30 1006.55 1005.90 1006.49 1007.61 1007.10 1006.34 1005.60 1005.06 1004.41 1003.81 1003.29 1002.73 1002.85 1003.23 1004.12 1006.29 1007.77 1009.15 1010.59 1011.85 1012.99 1013.98 1014.94 1015.63 1016.45 1017.23 1017.92 1018.41 1018.75 1019.21 1019.61 1019.98 1020.54 1020.75 1021.02 1021.35
1011.79 1010.08 1008.40 1008.53 1008.61 1008.28 1007.74 1007.58 1006.33 1006.09 1006.22 1007.97 1006.98 1005.66 1005.20 1004.62 1003.66 1003.25 1002.67 1001.91 1002.20 1002.58 1003.78 1005.76 1007.14 1008.68 1010.16 1011.45 1012.56 1013.42 1014.41 1015.20 1015.98 1016.62 1017.24 1017.55 1018.10 1018.78 1019.05 1019.54 1019.86 1020.21 1020.63 1020.85
1009.57 1008.05 1008.81 1008.91 1008.65 1008.67 1008.04 1007.72 1006.80 1006.70 1006.78 1007.38 1006.92 1004.53 1004.02 1003.17 1003.05 1002.65 1001.73 1001.46 1001.82 1002.45 1003.43 1005.05 1006.70 1008.29 1009.83 1010.83 1011.79 1012.73 1013.62 1014.45 1015.36 1016.16 1017.03 1017.90 1018.56 1018.95 1019.15 1019.29 1019.45 1019.89 1020.38 1020.92
1008.91 1008.49 1008.60 1008.96 1008.68 1008.68 1008.23 1007.58 1007.55 1007.66 1008.01 1006.47 1006.89 1002.49 1002.53 1002.23 1001.65 1001.89 1001.08 1000.41 1000.80 1001.90 1003.16 1004.57 1006.12 1007.63 1008.85 1010.13 1011.41 1012.28 1013.04 1013.77 1014.69 1015.73 1016.62 1017.19 1017.48 1017.66 1017.80 1018.09 1018.89 1019.53 1020.21 1020.70
1007.47 1008.65 1009.16 1009.06 1008.68 1008.65 1008.65 1008.79 1008.53 1008.38 1007.95 1006.79 1006.04 1004.05 1000.72 1001.16 1000.81 1000.66 1000.03 999.64 1000.02 1001.24 1002.71 1003.87 1005.29 1006.79 1008.21 1009.58 1010.47 1011.50 1012.34 1013.19 1014.16 1015.03 1015.69 1016.23 1016.57 1016.94 1017.41 1018.26 1018.90 1019.44 1019.95 1020.41
1008.78 1009.55 1009.55 1009.07 1009.61 1009.58 1009.63 1009.52 1009.27 1009.05 1008.33 1005.27 1004.05 1003.22 999.49 999.35 999.41 999.55 999.34 999.18 999.65 1000.83 1002.44 1003.89 1005.13 1006.58 1007.66 1008.93 1010.02 1010.79 1011.45 1012.45 1013.49 1014.44 1015.23 1015.60 1016.04 1016.55 1017.20 1017.83 1018.34 1018.98 1019.39 1019.77
1007.56 1008.19 1008.96 1009.66 1009.97 1010.27 1009.99 1009.46 1008.24 1007.63 1007.31 1003.15 1002.41 1000.86 998.46 998.58 998.75 998.69 998.61 998.45 999.36 1000.84 1002.05 1003.22 1004.61 1005.80 1006.94 1007.91 1008.92 1010.17 1010.73 1011.32 1012.41 1013.48 1014.17 1014.79 1015.39 1016.10 1016.79 1017.48 1018.04 1018.48 1018.85 1019.27
1006.63 1006.65 1007.84 1008.29 1008.25 1007.90 1008.99 1008.42 1007.61 1006.41 1005.40 1002.31 1002.37 998.83 997.13 997.22 997.30 997.75 997.81 998.43 999.52 1000.69 1001.72 1002.50 1003.49 1004.82 1005.97 1007.14 1008.41 1009.46 1009.99 1010.48 1011.58 1012.74 1013.61 1014.36 1014.88 1015.54 1016.27 1017.08 1017.88 1018.34 1018.70 1019.07
1005.58 1005.46 1007.01 1007.51 1007.88 1007.83 1008.28 1008.30 1007.03 1006.72 1005.31 1004.43 999.73 997.17 995.82 996.26 996.66 997.22 997.92 998.86 999.46 1000.48 1001.25 1001.97 1002.92 1003.85 1004.97 1006.24 1007.22 1008.04 1009.21 1009.99 1010.60 1011.60 1012.70 1013.42 1014.35 1015.08 1015.85 1016.72 1017.53 1018.17 1018.60 1018.89
1004.41 1005.19 1005.84 1007.95 1008.51 1008.12 1007.86 1007.25 1007.19 1007.02 1005.48 1003.12 998.23 997.35 995.26 996.45 996.13 996.84 997.86 998.42 998.71 999.89 1000.71 1001.52 1002.21 1003.06 1004.03 1005.04 1006.35 1007.36 1008.13 1009.02 1009.93 1010.96 1011.72 1012.59 1013.46 1014.67 1015.58 1016.24 1017.22 1017.88 1018.49 1018.96
1005.37 1005.81 1005.79 1007.72 1006.86 1006.07 1007.55 1006.68 1006.41 1006.00 1004.21 1002.49 1000.58 994.92 995.02 995.29 996.28 996.70 997.32 997.90 998.18 998.76 999.61 1000.49 1001.69 1002.69 1003.48 1004.33 1005.30 1005.99 1006.98 1008.04 1008.89 1010.10 1011.03 1012.16 1013.10 1014.17 1015.33 1015.90 1016.73 1017.43 1018.12 1018.74
1005.47 1005.61 1005.93 1004.57 1004.10 1004.29 1004.56 1004.51 1004.67 1003.84 1002.35 1002.15 1000.38 996.26 993.49 995.46 996.10 996.35 996.86 997.45 997.75 998.15 998.49 999.23 1000.21 1001.31 1002.39 1002.97 1004.17 1005.17 1006.33 1007.21 1008.04 1009.30 1010.52 1011.58 1012.82 1013.96 1015.07 1015.82 1016.46 1017.16 1017.77 1018.22
1005.60 1005.84 1005.97 1005.34 1004.69 1004.70 1004.01 1003.42 1003.28 1002.76 1002.24 1000.76 999.89 996.36 995.64 994.58 995.68 995.46 995.82 996.55 997.35 997.87 998.09 998.44 999.23 1000.26 1001.04 1002.08 1003.02 1003.98 1005.07 1006.15 1007.52 1008.97 1010.24 1011.31 1012.46 1013.34 1014.29 1015.19 1016.00 1016.76 1017.54 1018.05
1006.07 1005.70 1005.07 1004.20 1002.79 1002.56 1002.33 1002.32 1002.69 1003.14 1001.62 999.32 998.55 996.90 996.18 994.58 995.82 994.58 994.80 995.24 995.88 996.46 996.89 997.36 998.33 999.27 1000.05 1001.09 1002.24 1003.29 1004.39 1005.73 1007.01 1008.37 1009.77 1010.96 1011.95 1012.64 1013.66 1014.73 1015.83 1016.67 1017.54 1018.01
1008.10 1007.21 1006.74 1004.91 1004.13 1002.99 1002.47 1001.26 1001.69 1001.46 1000.52 1000.14 997.79 997.83 996.58 995.45 993.91 993.85 993.77 994.50 995.02 995.08 995.91 996.59 997.33 998.19 999.12 1000.20 1001.12 1002.39 1003.75 1005.14 1006.56 1008.01 1009.09 1010.30 1011.43 1012.19 1013.22 1014.29 1015.47 1016.39 1017.21 1017.83
1008.14 1007.34 1007.42 1005.79 1004.84 1004.11 1003.05 1002.34 1001.60 999.90 999.88 999.01 998.25 997.48 996.11 994.68 994.04 993.57 992.92 993.10 994.43 993.89 995.05 995.69 996.27 997.04 998.06 999.14 999.99 1001.32 1002.81 1004.42 1006.01 1007.52 1008.83 1010.09 1011.02 1012.02 1013.04 1014.06 1015.06 1015.88 1016.83 1017.31
1007.56 1007.34 1006.61 1004.73 1004.14 1003.69 1002.74 1001.29 999.55 999.10 997.99 997.24 997.02 995.10 994.73 993.45 992.94 992.19 993.10 993.11 993.69 993.18 993.74 994.45 995.19 995.94 996.96 998.01 999.07 1000.39 1002.05 1004.16 1005.89 1007.25 1008.56 1010.06 1011.11 1012.11 1012.98 1013.84 1014.82 1015.63 1016.37 1016.55
1005.22 1005.40 1005.25 1003.52 1003.57 1000.77 998.32 998.07 998.05 997.47 996.70 995.43 995.71 995.24 993.41 992.16 992.02 993.23 992.82 992.60 992.40 992.70 992.90 993.79 994.57 995.29 996.05 997.61 999.07 1000.40 1002.10 1003.90 1005.58 1007.08 1008.48 1009.90 1010.93 1011.97 1013.07 1014.02 1014.46 1015.02 1015.73 1015.91
1002.93 1002.98 1002.80 1002.19 1000.61 998.29 997.81 996.44 995.97 995.49 993.37 994.01 994.43 992.93 991.92 992.40 993.31 992.75 990.96 991.22 992.20 991.86 992.36 992.96 993.55 994.63 996.02 997.29 998.84 1000.96 1003.03 1004.66 1005.86 1006.98 1008.27 1010.14 1011.24 1011.88 1012.64 1013.52 1014.17 1014.80 1015.34 1015.61
1001.14 1001.34 1001.34 1000.62 998.52 996.00 994.28 994.50 993.87 993.13 992.50 992.84 991.70 991.51 990.93 991.28 993.05 991.00 989.46 991.09 991.52 991.75 992.26 992.97 993.69 994.86 996.31 997.80 998.95 1000.34 1002.08 1003.83 1005.22 1006.41 1007.59 1009.16 1010.64 1012.15 1013.15 1013.56 1014.02 1014.51 1015.10 1015.42
999.91 1000.27 998.84 997.98 996.07 994.11 993.59 992.86 992.74 992.38 989.82 989.98 990.67 990.55 990.49 991.07 990.60 989.82 990.52 990.89 991.22 991.87 992.84 993.80 994.63 995.06 996.15 997.70 999.30 1000.22 1001.52 1002.57 1004.21 1005.71 1007.29 1008.57 1009.87 1010.89 1012.25 1013.40 1013.79 1014.38 1014.84 1014.80
996.58 997.42 996.96 996.79 995.05 992.65 992.37 991.71 991.70 988.83 988.63 988.94 989.46 989.71 989.82 989.37 989.32 989.57 989.76 990.34 991.25 992.06 993.06 993.97 995.06 995.78 996.87 998.06 999.16 1000.04 1000.35 1001.98 1004.22 1005.06 1006.82 1009.01 1009.86 1010.84 1012.15 1012.61 1013.49 1014.05 1014.35 1014.47
996.49 996.50 996.27 994.78 992.33 991.42 990.61 989.82 989.62 989.41 989.34 989.36 989.16 988.99 988.96 989.07 989.12 989.42 989.85 990.01 990.73 991.69 992.92 994.03 994.84 996.01 996.78 997.57 998.52 999.57 1000.53 1001.79 1003.91 1005.25 1006.36 1008.35 1010.06 1010.93 1011.89 1012.87 1013.20 1013.78 1013.93 1013.62
998.34 997.16 995.97 995.64 994.13 993.46 992.89 992.00 991.56 991.85 992.00 991.93 991.70 991.50 991.13 990.79 990.38 990.17 990.44 991.06 991.26 992.02 993.01 994.51 995.36 995.80 996.60 997.22 998.17 999.29 1001.00 1002.02 1003.60 1005.33 1006.76 1008.46 1009.41 1010.59 1011.69 1012.17 1012.78 1013.08 1013.19 1012.96
999.47 998.13 996.88 995.58 994.88 994.05 993.36 992.61 992.98 992.84 992.83 992.78 992.41 992.07 991.58 991.58 991.51 991.59 990.95 990.78 991.17 991.35 992.60 993.84 994.48 995.50 995.97 996.96 997.81 999.34 1000.30 1001.34 1002.83 1004.16 1005.99 1007.32 1008.67 1009.55 1010.54 1011.28 1012.09 1012.26 1012.84 1013.07
1000.33 999.26 998.02 995.96 995.61 994.93 994.11 994.23 994.22 993.81 993.47 993.12 992.58 991.82 991.07 991.08 991.36 990.93 990.93 990.51 990.58 990.73 991.66 992.95 993.63 994.50 995.34 996.22 997.46 999.10 1000.41 1000.86 1002.10 1003.94 1005.60 1006.87 1007.94 1008.66 1009.50 1010.32 1011.43 1011.98 1012.36 1012.99
Wind_Speed
6 9 17 18 19 22 22 20 23 23 9 9 20 24 23 22 22 24 23 23 21 19 13 15 18 18 17 17 18 19 17 16 11 9 8 6 7 6 6 5 4 4 1 2
6 17 22 16 9 15 18 20 25 22 9 5 16 23 22 22 26 25 23 22 17 13 11 14 17 17 18 18 18 18 18 17 13 8 7 4 7 6 5 5 5 4 2 3
22 22 4 4 13 14 18 21 22 21 14 13 16 22 18 13 16 18 21 17 15 13 13 15 18 20 18 20 20 18 17 16 14 12 8 5 4 3 5 6 5 5 4 3
18 19 16 15 19 16 19 9 17 18 11 15 2 20 15 16 19 12 18 17 14 11 10 13 18 19 20 19 17 18 17 16 15 15 11 13 8 7 7 5 4 3 3 5
12 6 9 15 14 10 5 2 4 8 13 18 17 18 14 7 11 13 18 18 11 10 13 16 18 18 19 18 18 17 17 17 15 15 13 10 9 5 5 4 4 4 5 6
18 2 5 5 3 3 7 3 3 4 6 15 21 20 7 8 7 9 13 13 8 9 12 13 14 15 16 16 17 17 19 17 17 16 15 14 12 9 7 7 5 5 4 3
12 22 5 4 5 4 9 6 7 9 7 17 12 14 17 12 14 16 21 18 7 10 13 15 17 16 16 19 20 17 20 20 19 17 16 15 12 11 10 8 6 6 4 4
9 12 16 16 16 9 13 10 6 11 14 22 7 16 12 11 13 11 12 6 5 11 12 14 16 15 16 18 20 20 20 20 19 17 16 13 13 8 7 8 6 5 5 5
11 16 4 11 4 10 10 9 6 10 4 9 15 28 26 10 11 11 7 5 11 11 11 14 14 16 16 17 21 22 20 19 20 19 15 15 13 12 10 10 8 6 7 6
11 17 6 7 3 6 6 3 6 6 7 16 27 25 20 12 14 8 7 10 12 10 13 12 13 15 15 17 18 19 20 20 18 17 16 14 14 12 10 10 10 9 7 6
8 7 6 5 12 15 8 8 7 5 11 13 17 19 6 2 7 3 7 9 8 8 10 12 11 12 14 14 17 18 19 21 19 18 16 15 13 13 11 10 10 8 7 6
10 3 10 23 11 9 13 18 19 12 18 10 16 29 9 8 7 5 6 6 8 6 10 11 13 14 15 17 17 18 18 19 18 17 16 15 14 13 12 11 10 8 8 7
9 6 7 13 8 6 9 15 17 19 14 25 18 28 14 27 18 18 9 10 9 10 12 10 11 14 16 16 17 18 18 19 17 17 16 15 15 14 14 12 11 9 7 6
4 6 13 20 25 8 14 20 19 21 19 22 27 27 30 32 22 28 24 16 14 14 16 14 12 13 13 14 15 16 17 17 17 17 16 16 15 14 12 11 9 8 6 5
5 16 21 23 28 31 26 22 15 26 26 24 26 24 24 28 33 27 23 17 18 21 15 12 14 13 13 14 15 15 16 17 17 17 16 16 14 13 12 11 9 7 6 6
12 14 19 24 27 30 34 30 28 33 27 29 28 28 32 35 35 34 33 32 23 27 19 18 16 14 11 16 17 16 17 18 18 17 16 14 14 13 12 11 9 8 7 7
9 7 9 21 25 28 24 37 37 35 38 34 31 39 35 37 35 34 26 27 23 24 16 13 13 11 14 16 16 18 17 16 17 16 14 14 12 11 11 10 9 7 7 7
15 18 13 15 14 23 26 26 32 39 37 35 29 30 35 36 33 20 22 26 24 22 19 12 7 8 10 10 13 14 17 18 17 16 14 13 12 12 11 9 9 8 7 8
27 23 15 12 17 23 8 21 23 27 37 29 31 37 37 31 20 26 32 27 21 23 19 14 7 5 8 13 15 14 14 15 15 16 15 12 11 11 11 10 9 7 6 6
30 26 20 16 15 23 18 28 24 24 14 20 29 28 30 24 11 21 30 10 12 14 9 6 7 6 10 12 17 19 18 18 18 16 16 14 12 10 9 9 8 6 4 6
9 17 25 24 23 15 12 13 7 24 23 30 27 25 26 20 17 22 4 6 6 3 6 6 8 10 12 16 17 18 18 20 18 16 15 14 13 13 11 8 6 6 6 5
28 14 13 14 19 28 18 23 32 30 28 23 21 21 19 18 20 18 20 17 10 10 7 9 9 9 10 14 16 17 19 17 16 17 16 13 12 9 9 9 7 6 5 5
22 17 13 20 14 12 15 27 23 24 30 27 25 24 21 17 13 12 12 11 11 12 8 8 10 11 12 15 15 17 16 18 17 16 16 14 12 10 9 8 7 6 6 4
12 11 6 15 11 16 22 24 16 18 15 18 20 18 16 16 16 15 8 7 5 7 9 8 10 12 13 14 15 14 18 18 18 16 15 12 12 11 9 7 6 5 5 4
14 17 18 27 28 23 17 19 20 16 13 15 15 16 20 21 22 16 14 15 9 9 9 12 13 13 14 16 16 16 19 20 18 17 14 14 10 11 10 8 6 5 4 3
15 19 17 20 24 20 17 22 26 23 22 19 18 20 17 15 15 14 13 14 14 11 10 12 14 14 16 17 16 17 18 19 19 16 12 11 10 9 8 8 7 6 4 4
Wind_Direction
189 230 239 254 242 249 276 284 276 273 273 224 247 262 270 275 278 274 275 272 264 253 241 209 212 205 195 192 192 194 188 186 177 179 178 181 186 182 185 191 170 180 139 341
215 239 255 280 290 269 259 265 267 273 297 211 272 270 270 267 266 272 273 271 274 267 205 208 202 194 194 191 194 193 193 188 187 183 183 189 182 189 194 176 179 172 188 237
240 257 85 259 254 249 243 250 260 274 305 237 267 274 259 244 254 259 267 263 266 253 222 202 195 194 194 199 195 196 192 189 187 184 168 161 149 194 191 197 189 185 202 229
251 260 257 246 253 246 259 265 254 270 282 276 81 287 283 284 263 239 267 270 259 215 205 200 192 192 197 199 194 195 194 192 187 180 180 189 197 195 196 173 161 194 232 248
231 219 220 232 245 225 240 2 250 259 259 282 262 268 278 193 263 230 247 262 270 188 200 195 189 192 196 195 193 194 192 193 184 185 188 189 199 195 174 177 205 233 241 240
260 74 246 236 102 249 120 227 222 229 267 257 260 246 273 229 224 231 249 243 251 187 188 196 189 189 194 188 192 194 190 191 187 190 195 195 192 185 184 195 207 218 227 245
220 224 174 199 207 163 206 214 272 251 218 263 280 262 257 277 251 256 263 267 197 174 183 184 187 188 189 192 191 194 194 193 190 192 191 191 193 191 197 199 209 221 243 254
251 238 191 194 222 263 198 217 218 264 263 284 101 263 263 237 231 234 249 245 185 186 189 188 190 190 193 190 192 196 199 194 187 187 192 190 190 190 194 197 202 212 229 248
223 250 120 181 182 186 162 204 256 275 264 280 266 270 268 231 197 223 217 213 224 208 199 199 197 195 194 191 196 197 200 199 189 185 186 187 186 186 186 187 193 208 224 235
258 263 167 123 202 225 241 39 187 204 259 254 278 278 280 270 227 213 232 236 248 210 213 218 205 197 194 194 197 198 199 198 189 186 185 185 180 181 183 180 195 204 215 232
235 227 230 144 201 215 187 223 220 300 240 253 269 270 49 42 136 301 224 246 240 211 210 214 206 201 200 196 197 199 196 193 189 187 182 179 175 176 180 184 192 200 207 220
213 236 233 237 246 249 248 228 220 219 231 232 250 269 129 111 107 141 213 204 249 224 218 221 202 201 200 199 195 198 196 195 191 184 179 175 169 170 179 185 186 189 206 217
174 210 235 259 225 166 211 223 241 241 251 246 246 249 267 273 278 277 239 227 209 219 236 223 206 200 206 201 197 195 192 195 185 178 176 172 173 173 179 182 183 190 203 212
14 237 227 240 252 260 216 229 224 228 233 249 245 263 274 282 281 274 274 264 250 235 239 250 217 216 208 201 195 195 192 189 179 177 176 175 177 173 175 172 178 188 199 216
296 273 269 256 265 276 274 262 227 224 235 243 261 261 266 277 274 275 277 280 283 273 269 243 229 228 207 196 194 191 189 185 177 175 176 177 170 165 161 165 170 172 192 219
236 248 255 261 266 269 274 272 268 263 263 259 255 257 258 261 269 273 271 276 276 276 273 265 257 226 202 198 193 186 186 180 171 176 175 168 162 159 165 162 162 172 201 218
194 208 219 243 243 247 251 242 247 251 254 252 252 250 260 264 261 261 276 275 273 275 270 255 246 218 208 201 188 187 178 165 171 171 167 161 159 158 159 155 162 180 204 214
222 216 225 258 257 233 239 247 234 246 253 260 254 257 255 257 272 290 272 266 272 270 268 262 235 230 199 190 179 164 164 165 168 166 158 159 154 151 154 162 173 185 203 218
221 229 237 233 230 250 309 232 223 225 239 245 255 253 255 267 275 272 261 259 253 261 265 265 253 199 163 164 158 153 156 160 166 166 157 157 158 153 157 172 179 186 203 229
226 225 229 230 240 239 227 225 243 242 240 231 240 252 260 262 232 252 262 257 237 249 245 216 145 126 144 158 156 155 161 169 178 169 155 152 154 157 164 166 172 178 204 231
205 223 230 234 244 245 236 237 227 240 251 233 242 250 260 256 237 258 291 231 227 213 159 142 163 163 164 158 158 163 165 178 170 155 145 150 154 154 159 160 164 174 206 226
234 219 216 234 244 249 219 231 232 243 251 252 254 251 251 255 257 243 250 247 209 204 175 171 163 160 152 159 165 176 177 161 157 141 140 149 148 149 158 155 165 187 194 214
250 270 298 267 254 249 228 228 252 260 255 260 263 265 283 298 277 265 252 257 211 203 174 168 167 161 166 174 179 175 171 151 149 144 139 145 149 152 148 157 162 179 190 207
289 295 275 333 347 322 311 311 349 358 358 340 332 334 334 323 314 304 303 270 210 187 183 176 167 177 181 179 181 172 155 151 147 143 142 147 146 148 160 159 171 183 193 182
283 308 294 292 289 290 307 311 310 308 310 307 304 307 311 313 304 292 290 284 252 206 182 182 188 193 187 178 176 157 159 154 151 145 149 150 148 156 155 163 172 178 177 210
273 278 273 279 299 308 315 318 310 309 305 299 297 296 283 269 264 272 277 275 272 243 194 193 195 188 181 174 159 161 161 161 149 142 149 154 151 151 155 155 150 177 164 208